SL-16 DEB, 39860

Orbit data source: Space-Track

SL-16 DEB, 39860 is space debris in LEO originally from a launch on Fri, 25 Dec 1992 UTC launched from the Tyuratam Missile And Space Complex (TTMTR). Debris objects in space refer to the collection of defunct objects orbiting the Earth. Examples of debris include non-operational satellites, rocket bodies, and fragments generated from explosions, collisions, or faulty payload assembly.

Loading next visibility...
Identifier
39860, 1992-093LN
Orbit
LEO
Country
Flag of CISCIS
Related business
Manufacturer
Unknown
Mission
Spacecraft
Bus & Motor
Unknown
Mass
Unknown
Launch date (UTC)
1992-12-25 (33 years ago)
Launch vehicle
Unknown
Launch site
Tyuratam Missile And Space Complex (TTMTR)
Object type
Payload
Rocket body
Debris
Shape & HBR
Unknown shape, 0.1 m
Radar Cross Section
Small (<0.1 m²)

Expand to show TLE details & history
Last TLE update: 1 week ago

TLE from 1 week ago
0 SL-16 DEB
1 39860U 92093LN  25296.34360772  .00001889  00000-0  71961-3 0  9998
2 39860  70.7845 151.1328 0031593 275.2007  84.5518 14.31932078592638
Epoch: 2025-10-23T08:14Z
TLE epoch observation values (Epoch: 2025-10-23T08:14:47.707Z)
Latitude
0.00001°
Longitude
-4.57019°
Altitude
785.607 km
Speed
7.462 km/s
True Right ascension
10h 04m 31s
True Declination
0° 00' 00"
Sunlit
Object was in daylight at epoch
Visualization orbit readout
Latitude
Unknown
Longitude
Unknown
Altitude
Unknown
Speed
Unknown
Apparent Right ascension
Unknown
Apparent Declination
Unknown
Sunlit
N/A
Visualization observer readout
Local Sidereal Time
05:09:15
Azimuth
Unknown
Elevation
Unknown
Doppler factor
Unknown
Orbital elements
Apogee altitude
805.834 km
Perigee altitude
760.585 km
Semi-major axis
7,161.347 km
Eccentricity
0.00316
Inclination
70.7845°
RAAN
151.1328°
Arg. of periapsis
275.2007°
True anomaly
84.91233°
Mean anomaly
84.5518°
Eccentric anomaly
84.73205°
Mean motion
3.58139 °/min
Orbital period
100.52 mins
BSTAR
0.00071961
Loading maneuver chart data...
Computing Atmospheric mass density...
Loading historical data...
Loading historical data...
Loading historical data...
Loading historical data...
Loading historical data...
Loading historical data...
Loading historical data...

Documentation

Showing up to 5 results
|